Location: Newark
(34.1333°N, 7.9667°W)
Time: 15:13:39
(UTC+00:00)

ITAMSAT 1 - Pass Details

Date: 16 April 2024
Orbit: 782 x 796 km, 98.8° (Epoch: 25 May)

Event Time Altitude Azimuth Distance (km) Brightness Sun altitude
Exits shadow 20:18:12 23° 110° (ESE) 1,617 8.6 -15.2°
Maximum altitude 20:20:21 32° 70° (ENE) 1,338 8.5 -15.6°
Drops below altitude 10° 20:24:56 10° 8° (N) 2,371 10.3 -16.5°
Sets 20:27:28 0° 359° (N) 3,304 11.3 -17.0°
